This is the latest recevied weather packets stored in our database for station/object VA3VWX-13. If no packets are shown the sender has not sent any weather packets the latest 10 day(s).
| Time | Temp. | Humidity | Pressure | Rain* | Wind** | Luminosity | Snow |
|---|---|---|---|---|---|---|---|
| 1777834114 | 10.56° C | 58% | 1009.4 hPa | 0 mm | - | - | - |
| 1777833820 | 10.56° C | 56% | 1009.6 hPa | 0 mm | - | - | - |
| 1777833527 | 10° C | 55% | 1009.6 hPa | 0 mm | - | - | - |
| 1777833205 | 10.56° C | 53% | 1009.7 hPa | 0 mm | - | - | - |
| 1777832909 | 10° C | 52% | 1009.7 hPa | 0 mm | - | - | - |
| 1777832615 | 10° C | 50% | 1009.8 hPa | 0 mm | - | - | - |
| 1777832313 | 10.56° C | 48% | 1009.9 hPa | 0 mm | - | - | - |
| 1777832021 | 10.56° C | 48% | 1010.1 hPa | 0 mm | - | - | - |
| 1777831703 | 11.11° C | 47% | 1010.2 hPa | 0 mm | - | - | - |
| 1777831420 | 11.11° C | 46% | 1010.3 hPa | 0 mm | - | - | - |
| 1777831130 | 11.11° C | 48% | 1010.3 hPa | 0 mm | - | - | - |
| 1777830808 | 11.67° C | 47% | 1010.5 hPa | 0 mm | - | - | - |
| 1777830515 | 11.67° C | 47% | 1010.5 hPa | 0 mm | - | - | - |
| 1777830220 | 12.22° C | 47% | 1010.6 hPa | 0 mm | - | - | - |
| 1777829918 | 11.67° C | 47% | 1010.8 hPa | 0 mm | - | - | - |
| 1777829602 | 12.22° C | 47% | 1010.8 hPa | 0 mm | - | - | - |
| 1777829310 | 11.67° C | 49% | 1010.8 hPa | 0 mm | - | - | - |
| 1777829009 | 11.67° C | 46% | 1010.9 hPa | 0 mm | - | - | - |
| 1777828715 | 11.67° C | 47% | 1011.1 hPa | 0 mm | - | - | - |
| 1777828418 | 11.11° C | 46% | 1011.1 hPa | 0 mm | - | - | - |
| 1777828123 | 11.67° C | 46% | 1011.2 hPa | 0 mm | - | - | - |
| 1777827841 | 11.67° C | 43% | 1011.3 hPa | 0 mm | - | - | - |
| 1777827521 | 11.67° C | 41% | 1011.4 hPa | 0 mm | - | - | - |
| 1777827208 | 11.67° C | 42% | 1011.5 hPa | 0 mm | - | - | - |
| 1777826914 | 11.67° C | 43% | 1011.6 hPa | 0 mm | - | - | - |
* Rain latest hour (hover to see other rain measurements)
** Current wind speed in m/s (hover to see current wind gust speed)